User: anonymous   Login
Location: Del Oro Observatory
(38.3044°N, 104.8119°W)
Time: 11:22:56
(UTC-06:00)
Language:

Cosmos 1602 Rocket - Orbit

View from above orbital plane
View from above orbital plane
View from above satellite
View from above satellite

Ground track
Ground track

The orbit data is extracted from the following two-line orbital elements,

1 15332U 84105B   17295.93163434 +.00000103 +00000-0 +97115-5 0  9991
2 15332 082.5349 068.6668 0019983 311.9323 187.5112 14.83326561764437
Epoch (UTC): 22 October 2017 22:21:33
Eccentricity: 0.0019983
inclination: 82.5349°
perigee height: 605 km
apogee height: 633 km
right ascension of ascending node: 68.6668°
argument of perigee: 311.9323°
revolutions per day: 14.83326561
mean anomaly at epoch: 187.5112°
orbit number at epoch: 76443

The dashed part of the orbit path shows where the satellite is in the earth's shadow,  

DLR